Hill City, KS

3:22 PM CDT on April 30, 2017 (GMT -0500)
Hill City Municipal

Weather History for KHLC - May, 2013

Change the Weather History Date:

Thursday, May 9, 2013

  Actual Average Record
Temperature  
Mean Temperature 60 °F 60 °F  
Max Temperature 70 °F 73 °F 97 °F (2011)
Min Temperature 50 °F 47 °F 32 °F (1997)
Degree Days  
Heating Degree Days 4    
Growing Degree Days 10 (Base 50)    
Moisture  
Dew Point 51 °F    
Average Humidity 79    
Maximum Humidity 96    
Minimum Humidity 50    
Precipitation  
Precipitation 0.05 in 0.12 in 0.55 in (1998)
Month to date precipitation 0.79 1.02  
Year to date precipitation 3.01 5.74  
Sea Level Pressure  
Sea Level Pressure 29.99 in    
Wind  
Wind Speed 12 mph (North)    
Max Wind Speed 17 mph    
Max Gust Speed 20 mph    
Visibility 9 miles    
Events Rain    
T = Trace of Precipitation, MM = Missing Value Source: NWS Daily Summary

Daily Weather History Graph

Daily Weather History Graph

Search for Another Location

Airport or City:

Trip Planner

Search our weather history database for the weather conditions in past years. The results will help you decide how hot, cold, wet, or windy it might be!

Date:

Astronomy

May. 09, 2013 Rise Set
Actual Time 6:31 AM CDT 8:40 PM CDT
Civil Twilight 6:01 AM CDT 9:10 PM CDT
Nautical Twilight 5:24 AM CDT 9:47 PM CDT
Astronomical Twilight 4:45 AM CDT 10:27 PM CDT
Moon 6:16 AM CDT (5/9) 8:37 PM CDT (5/9)
Length of Visible Light 15h 09m
Length of Day
14h 09m
Waning Crescent, 0% of the Moon is Illuminated
May 9
Waning Crescent
May 9
New
May 17
First Quarter
May 24
Full
May 31
Last Quarter

Hourly Weather History & Observations

Time (CDT) Temp. Dew Point Humidity Pressure Visibility Wind Dir Wind Speed Gust Speed Precip Events Conditions
12:53 AM 57.9 °F 48.9 °F 72% 29.88 in 10.0 mi West 12.7 mph - N/A   Mostly Cloudy
1:53 AM 57.0 °F 48.9 °F 74% 29.87 in 10.0 mi WNW 12.7 mph - N/A   Clear
2:53 AM 57.0 °F 52.0 °F 83% 29.87 in 10.0 mi NNW 17.3 mph - N/A   Mostly Cloudy
3:53 AM 57.0 °F 54.0 °F 89% 29.89 in 8.0 mi NNW 9.2 mph - N/A   Overcast
4:53 AM 55.9 °F 54.0 °F 93% 29.89 in 5.0 mi North 10.4 mph - N/A   Partly Cloudy
5:53 AM 55.0 °F 54.0 °F 96% 29.90 in 4.0 mi North 15.0 mph - N/A   Clear
6:53 AM 54.0 °F 52.0 °F 93% 29.94 in 4.0 mi NNW 9.2 mph - N/A   Clear
7:53 AM 55.0 °F 48.9 °F 80% 29.96 in 10.0 mi NNW 12.7 mph - N/A   Clear
8:18 AM 53.6 °F 48.2 °F 82% 30.00 in 10.0 mi North 13.8 mph - N/A   Mostly Cloudy
8:38 AM 55.4 °F 50.0 °F 82% 30.01 in 10.0 mi NNW 15.0 mph - N/A   Scattered Clouds
8:53 AM 55.9 °F 50.0 °F 80% 29.98 in 10.0 mi North 15.0 mph - N/A   Scattered Clouds
9:13 AM 57.2 °F 51.8 °F 82% 30.02 in 10.0 mi North 16.1 mph - N/A   Mostly Cloudy
9:36 AM 59.0 °F 51.8 °F 77% 30.03 in 10.0 mi North 13.8 mph - N/A   Scattered Clouds
9:53 AM 57.9 °F 51.1 °F 78% 30.01 in 10.0 mi NNW 12.7 mph - N/A   Scattered Clouds
10:00 AM 57.2 °F 50.0 °F 77% 30.03 in 10.0 mi North 9.2 mph - N/A   Mostly Cloudy
10:53 AM 59.0 °F 50.0 °F 72% 30.02 in 10.0 mi North 10.4 mph - N/A   Overcast
11:07 AM 59.0 °F 50.0 °F 72% 30.05 in 10.0 mi North 10.4 mph - N/A   Overcast
12:53 PM 63.0 °F 51.1 °F 65% 30.01 in 10.0 mi North 11.5 mph - N/A   Overcast
1:53 PM 66.0 °F 51.1 °F 59% 30.01 in 10.0 mi Variable 5.8 mph - N/A   Mostly Cloudy
2:53 PM 68.0 °F 48.9 °F 50% 29.99 in 10.0 mi North 11.5 mph 19.6 mph N/A   Scattered Clouds
3:53 PM 63.0 °F 53.1 °F 70% 30.00 in 10.0 mi North 15.0 mph - N/A   Overcast
4:53 PM 57.9 °F 55.0 °F 90% 30.03 in 10.0 mi NNE 11.5 mph - 0.02 in Rain Light Rain
5:53 PM 59.0 °F 55.0 °F 87% 30.03 in 10.0 mi NNE 10.4 mph - 0.03 in   Overcast
6:53 PM 61.0 °F 53.1 °F 75% 30.03 in 10.0 mi NNE 12.7 mph - N/A   Overcast
7:53 PM 59.0 °F 51.1 °F 75% 30.05 in 10.0 mi NNE 16.1 mph - N/A   Overcast
9:53 PM 55.0 °F 51.1 °F 86% 30.08 in 10.0 mi North 8.1 mph - 0.00 in   Mostly Cloudy
10:28 PM 55.4 °F 51.8 °F 88% 30.10 in 10.0 mi North 5.8 mph - N/A   Overcast
10:53 PM 53.1 °F 51.1 °F 93% 30.08 in 10.0 mi NNW 6.9 mph - N/A   Mostly Cloudy